Weather History for Jefferson City, MO

Change the Weather History Date:

Wednesday, May 1, 2013

  Actual Average Record
Temperature  
Mean Temperature 70 °F -  
Max Temperature 82 °F 73 °F 91 °F (1959)
Min Temperature 59 °F 47 °F 28 °F (1960)
Cooling Degree Days 6    
Growing Degree Days 20 (Base 50)    
Moisture  
Dew Point 53 °F    
Average Humidity 52    
Maximum Humidity 75    
Minimum Humidity 35    
Precipitation  
Precipitation 0.00 in - - ()
Sea Level Pressure  
Sea Level Pressure 29.96 in    
Wind  
Wind Speed 6 mph (ESE)    
Max Wind Speed 12 mph    
Max Gust Speed -    
Visibility 10 miles    
Events      
Averages and records for this station are not official NWS values.
T = Trace of Precipitation, MM = Missing Value Source: NWS Daily Summary

Daily Weather History Graph

Daily Weather History Graph

Search for Another Location

Airport:

Trip Planner

Search our weather history database for the weather conditions in past years. The results will help you decide how hot, cold, wet, or windy it might be!

Date:

Astronomy

May. 01, 2013 Rise Set
Actual Time 6:11 AM CDT 8:00 PM CDT
Civil Twilight 5:42 AM CDT 8:29 PM CDT
Nautical Twilight 5:07 AM CDT 9:04 PM CDT
Astronomical Twilight 4:30 AM CDT 9:41 PM CDT
Moon 1:10 AM CDT (5/1) 11:49 AM CDT (5/1)
Length of Visible Light 14h 47m
Length of Day
13h 49m
Waning Gibbous, 59% of the Moon is Illuminated
May 1
Waning Gibbous
May 2
Last Quarter
May 9
New
May 17
First Quarter
May 24
Full

Hourly Weather History & Observations

Time (CDT) Temp. Heat Index Dew Point Humidity Pressure Visibility Wind Dir Wind Speed Gust Speed Precip Events Conditions
12:53 AM 66.9 °F - 48.9 °F 52% 29.89 in 10.0 mi ESE 8.1 mph - N/A   Clear
1:53 AM 64.9 °F - 48.9 °F 56% 29.90 in 10.0 mi ESE 4.6 mph - N/A   Clear
2:53 AM 64.0 °F - 50.0 °F 60% 29.90 in 10.0 mi East 5.8 mph - N/A   Clear
3:53 AM 61.0 °F - 51.1 °F 70% 29.91 in 10.0 mi East 3.5 mph - N/A   Partly Cloudy
4:53 AM 60.1 °F - 50.0 °F 69% 29.93 in 10.0 mi Calm Calm - N/A   Clear
5:53 AM 60.1 °F - 51.1 °F 72% 29.94 in 10.0 mi East 6.9 mph - N/A   Partly Cloudy
6:53 AM 59.0 °F - 51.1 °F 75% 29.97 in 10.0 mi SE 3.5 mph - N/A   Scattered Clouds
8:53 AM 66.0 °F - 53.1 °F 63% 30.00 in 10.0 mi ESE 6.9 mph - N/A   Overcast
9:53 AM 70.0 °F - 55.0 °F 59% 30.00 in 10.0 mi East 5.8 mph - N/A   Mostly Cloudy
10:53 AM 75.9 °F - 57.0 °F 52% 30.00 in 10.0 mi Calm Calm - N/A   Clear
11:53 AM 79.0 °F - 50.0 °F 36% 29.99 in 10.0 mi South 11.5 mph - N/A   Mostly Cloudy
12:53 PM 80.1 °F - 52.0 °F 38% 29.99 in 10.0 mi SSE 9.2 mph - N/A   Clear
1:53 PM 81.0 °F - 52.0 °F 36% 29.99 in 10.0 mi South 5.8 mph - N/A   Partly Cloudy
2:53 PM 82.0 °F - 52.0 °F 35% 29.97 in 10.0 mi SE 11.5 mph - N/A   Partly Cloudy
3:53 PM 82.0 °F 81.2 °F 53.1 °F 37% 29.96 in 10.0 mi ESE 9.2 mph - N/A   Partly Cloudy
4:53 PM 82.9 °F 81.8 °F 53.1 °F 36% 29.95 in 10.0 mi SE 9.2 mph - N/A   Clear
5:53 PM 82.9 °F 81.8 °F 53.1 °F 36% 29.94 in 10.0 mi SE 8.1 mph - N/A   Clear
6:53 PM 81.0 °F - 52.0 °F 36% 29.95 in 10.0 mi East 8.1 mph - N/A   Clear
7:53 PM 77.0 °F - 55.0 °F 47% 29.96 in 10.0 mi Calm Calm - N/A   Mostly Cloudy
8:53 PM 75.0 °F - 57.0 °F 53% 29.98 in 10.0 mi ESE 6.9 mph - N/A   Overcast
9:53 PM 75.9 °F - 57.0 °F 52% 30.01 in 10.0 mi SE 10.4 mph - N/A   Overcast
10:53 PM 72.0 °F - 57.9 °F 61% 30.01 in 10.0 mi ESE 6.9 mph - N/A   Partly Cloudy
11:53 PM 71.1 °F - 57.9 °F 63% 30.02 in 10.0 mi ESE 4.6 mph - N/A   Partly Cloudy